Tracking 28790 objects as of 19-Apr-2024
HD Live streaming from Space Station
objects crossing your sky now

STARLINK-2648

Track STARLINK-2648 now!
10-day predictions
STARLINK-2648 is classified as:


NORAD ID: 48679
Int'l Code: 2021-044AT
Perigee: 553.4 km
Apogee: 555.3 km
Inclination: 53.1 °
Period: 95.6 minutes
Semi major axis: 6925 km
RCS: Unknown
Launch date: May 26, 2021
Source: United States (US)
Launch site: AIR FORCE EASTERN TEST RANGE (AFETR)
Your satellite tracking list
Your tracking list is empty




NASA's NSSDC Master Catalog

Two Line Element Set (TLE):
1 48679U 21044AT  24109.91967002  .00001204  00000-0  99747-4 0  9992
2 48679  53.0555 328.1152 0001356  90.6977 269.4167 15.06387453159882
Source of the keplerian elements: AFSPC